Retour au catalogue

YAOGAN 40-03-01

ActifMilitairePO
NORAD 65544·PAYLOAD·🇨🇳 China
Ce nom de satellite n'a pas encore été confirmé par des sources officielles.

Lancé Sep 6, 2025 depuis Taiyuan Satellite Launch Center

Loading…

Prochains Passages (prochaines 24 heures)

TLE

FraisSource: Space-Track

Époque: Sep 14, 2026, 05:36 UTC

1 65544U 25199A   26257.23371409  .00000265  00000-0  10180-3 0  9997
2 65544  85.9943   0.2290 0015115 138.8460 221.3874 14.26527488 53114

Suivez YAOGAN 40-03-01 en temps réel avec AllMySat

Download on the App Store